SL-16 DEB, 22326

Orbit data source: Space-Track

SL-16 DEB, 22326 is space debris in LEO originally from a launch on Fri, 25 Dec 1992 UTC launched from the Tyuratam Missile And Space Complex (TTMTR). Debris objects in space refer to the collection of defunct objects orbiting the Earth. Examples of debris include non-operational satellites, rocket bodies, and fragments generated from explosions, collisions, or faulty payload assembly.

Loading next visibility...
Identifier
22326, 1992-093P
Orbit
LEO
Country
Flag of CISCIS
Related business
Manufacturer
Unknown
Mission
Spacecraft
Bus & Motor
Unknown
Mass
Unknown
Launch date (UTC)
1992-12-25 (33 years ago)
Launch vehicle
Unknown
Launch site
Tyuratam Missile And Space Complex (TTMTR)
Object type
Payload
Rocket body
Debris
Shape & HBR
Unknown shape, 0.1 m
Radar Cross Section
Small (<0.1 m²)

Expand to show TLE details & history
Last TLE update: 6 hours ago

TLE from 6 hours ago
0 SL-16 DEB
1 22326U 92093P   26127.21250564  .00000971  00000-0  65225-3 0  9991
2 22326  70.6598 177.3461 0139789 305.4217 111.8512 13.98723666688754
Epoch: 2026-05-07T05:06Z
TLE epoch observation values (Epoch: 2026-05-07T05:06:00.487Z)
Latitude
53.88222°
Longitude
-95.63049°
Altitude
945.581 km
Speed
7.364 km/s
True Right ascension
13h 43m 44s
True Declination
53° 43' 21"
Sunlit
Object was in daylight at epoch
Visualization orbit readout
Latitude
Unknown
Longitude
Unknown
Altitude
Unknown
Speed
Unknown
Apparent Right ascension
Unknown
Apparent Declination
Unknown
Sunlit
N/A
Visualization observer readout
Local Sidereal Time
19:07:38
Azimuth
Unknown
Elevation
Unknown
Doppler factor
Unknown
Orbital elements
Apogee altitude
997.879 km
Perigee altitude
794.505 km
Semi-major axis
7,274.329 km
Eccentricity
0.01398
Inclination
70.6598°
RAAN
177.3461°
Arg. of periapsis
305.4217°
True anomaly
113.3282°
Mean anomaly
111.8512°
Eccentric anomaly
112.59068°
Mean motion
3.49827 °/min
Orbital period
102.91 mins
BSTAR
0.00065225
Loading maneuver chart data...
Computing Atmospheric mass density...
Loading historical data...
Loading historical data...
Loading historical data...
Loading historical data...
Loading historical data...
Loading historical data...
Loading historical data...

Documentation

Showing up to 5 results
|